Welcome to the New NWS' Forecast!
Most changes are behind the scenes, but click here for differences you might notice.
Latest weather observations around

Boston, Logan International Airport (KBOS)

Using English Units (Switch to International System of Units)
Date/ Time (EDT) Wind (mph) Vis. (mi) Weather Sky Cond. Temp (°F) Rel. Humidity Wind Chill (°F) Heat Index (°F) Pressure Precip. (in)
Air Dwpt 6 hour Altimeter (inHg) Sea level (inHg) 1 hr 3 hr 6 hr
Max Min
Oct 18 16:54 WNW 15 10 Mostly Clear FEW060 47 14     26% 41   30.21 30.2      
Oct 18 15:54 WNW 16 10 Mostly Clear FEW055 48 14     25% 42   30.2 30.2      
Oct 18 14:54   10 Mostly Clear FEW055 48 15     26%     30.2 30.19      
Oct 18 13:54 WNW 14 10 Mostly Clear FEW060 48 15     26% 42   30.2 30.19      
Oct 18 12:54 WNW 15 10 Mostly Clear FEW060 47 16     29% 41   30.2 30.19      
Oct 18 11:54   10 Mostly Clear FEW060 45 15     30%     30.21 30.21      
Oct 18 10:54   10 Mostly Clear FEW055 44 17     33%     30.21 30.21      
Oct 18 09:54 NW 18 10 Mostly Clear FEW050 42 18     37% 34   30.21 30.2      
Oct 18 08:54   10 Mostly Clear FEW045 41 20     43%     30.19 30.19      
Oct 18 07:54 WNW 15 10 Mostly Clear FEW050 39 19     44% 31   30.17 30.16     0
Oct 18 06:54 NW 15 10 Mostly Clear FEW050 39 20     46% 31   30.13 30.13      
Oct 18 05:54 W 16 10 Mostly Clear FEW050 FEW070 40 22     48% 31   30.09 30.09      
Oct 18 04:54 W 15 10 Mostly Clear FEW055 FEW090 40 25     55% 32   30.07 30.06   0  
Oct 18 03:54 W 16 10 Mostly Clear FEW070 40 27     60% 31   30.04 30.03      
Oct 18 02:54   10 Mostly Clear FEW070 FEW090 41 32     70%     30.02 30.01 0    
Oct 18 01:54 W 18 7 Light Rain FEW032 SCT050 OVC070 42 33     70% 34   30 29.99 0   0
Oct 18 00:54 W 14 10 Mostly Clear FEW090 47 28     48% 41   29.96 29.96      
Oct 17 23:54   10 Mostly Clear FEW090 47 29     49%     29.94 29.94      
Oct 17 22:54 WNW 11 10 Mostly Clear FEW041 FEW070 48 33     56% 43   29.93 29.93 0 0  
Oct 17 21:54 W 18 10 Clear   50 32     50%     29.91 29.91      
Oct 17 20:54 W 16 10 Mostly Clear FEW040 FEW120 51 33     50%     29.88 29.88      
Oct 17 19:54   10 Mostly Clear FEW060 FEW120 52 35     52%     29.86 29.85     0
Oct 17 18:54   10 Mostly Cloudy FEW014 SCT055 BKN110 53 38     56%     29.85 29.84      
Oct 17 17:54 WNW 14 10 Mostly Cloudy FEW004 FEW012 BKN055 BKN130 54 38     55%     29.82 29.82 0    
Oct 17 17:49 W 18 10 Mostly Cloudy FEW004 FEW012 BKN055 BKN130 54 37     54%     29.82   0    
Oct 17 16:54 WNW 18 10 Mostly Cloudy FEW055 BKN075 BKN200 61 34     36%     29.76 29.76      
Oct 17 15:54 WSW 15 10 Partly Cloudy FEW055 SCT085 62 36     38%     29.73 29.73      
Oct 17 14:54 W 21 10 Partly Cloudy and Windy FEW055 SCT090 63 34     34%     29.74 29.73      
Oct 17 13:54 WSW 18 10 Partly Cloudy SCT055 62 39     43%     29.75 29.74      
Oct 17 12:54   10 Mostly Clear FEW050 61 39     44%     29.77 29.77      
Oct 17 11:54   10 Mostly Clear FEW050 FEW250 59 37     44%     29.81 29.81      
Oct 17 10:54 WSW 10 10 Mostly Clear FEW130 FEW250 57 36     45%     29.86 29.85      
Oct 17 09:54 W 9 10 Mostly Cloudy BKN130 BKN250 53 37     54%     29.88 29.88      
Oct 17 08:54 WSW 9 10 Mostly Clear FEW140 FEW250 50 37     61%     29.89 29.88      
Oct 17 07:54 WSW 11 10 Mostly Clear FEW120 FEW250 46 36     68% 41   29.9 29.9      
Oct 17 06:54 SW 10 10 Partly Cloudy FEW120 SCT250 44 36     73% 39   29.92 29.91      
Oct 17 05:54 SW 10 10 Clear CLR 44 36     73% 39   29.93 29.93      
Oct 17 04:54 SW 10 10 Clear CLR 44 36     73% 39   29.95 29.95      
Oct 17 03:54 WSW 9 10 Clear CLR 46 36     68% 41   29.96 29.96      
Oct 17 02:54 SW 9 10 Clear CLR 45 37     74% 40   29.98 29.97      
Oct 17 01:54 SW 10 10 Partly Cloudy SCT250 47 37     68% 42   29.99 29.98      
Oct 16 23:54 WSW 9 10 Partly Cloudy SCT250 49 36     61% 45   30.01 30.01      
Oct 16 22:54 SW 13 10 Partly Cloudy SCT250 50 36     58%     30.01 30.01      
Oct 16 21:54 SW 11 10 Partly Cloudy SCT250 50 36     58%     30.01 30.01      
Oct 16 20:54 W 9 10 Mostly Clear FEW230 53 33     46%     30.02 30.01      
Oct 16 19:54 W 8 10 Clear   53 33     46%     30.01 30      
Oct 16 18:54 W 10 10 Partly Cloudy SCT230 54 31     41%     30 30      
Oct 16 17:54 W 15 10 Mostly Clear FEW045 FEW200 57 30     36%     29.98 29.98      
Oct 16 16:54 WSW 14 10 Mostly Clear FEW045 FEW200 58 32     37%     29.97 29.97      
Oct 16 15:54 W 14 10 Mostly Clear FEW045 FEW200 59 30     33%     29.98 29.98      
Oct 16 14:54 WNW 15 10 Mostly Clear FEW045 FEW200 59 30     33%     29.98 29.97      
Oct 16 13:54 WNW 14 10 Partly Cloudy FEW050 SCT250 58 30     34%     29.99 29.98      
Oct 16 12:54 W 10 10 Partly Cloudy FEW050 SCT250 57 31     37%     30 30      
Oct 16 11:54 W 16 10 Partly Cloudy FEW050 SCT250 55        %     30.02 30.02      
Oct 16 10:54 WNW 14 10 Mostly Clear FEW050 FEW200 53        %     30.04 30.03      
Oct 16 09:54 W 14 10 Mostly Clear FEW050 FEW200 51        %     30.04 30.03      
Oct 16 08:54 W 13 10 Mostly Clear FEW200 49        % 44   30.03 30.03      
Oct 16 07:54 W 15 10 Mostly Clear FEW110 FEW200 48        % 42   30 30     0
Oct 16 06:54 W 16 10 Partly Cloudy SCT110 SCT200 48        % 42   29.96 29.96      
Oct 16 05:54 W 18 10 Mostly Cloudy BKN100 49        % 43   29.94 29.94      
Oct 16 04:54 WNW 16 10 Mostly Cloudy BKN100 51        %     29.91 29.91   0  
Oct 16 03:54   10 Mostly Cloudy BKN100 54        %     29.86 29.85      
Oct 16 02:54   10 Mostly Clear FEW100 56        %     29.82 29.82 0    
Oct 16 01:54 W 17 10 Light Rain FEW080 BKN095 OVC110 57        %     29.79 29.79 0   0
Oct 16 00:54   10 Light Rain BKN040 BKN048 OVC060 60        %     29.75 29.75 0    
Oct 16 00:27 WNW 18 2.5 Heavy Rain BKN025 BKN035 OVC043 61        %     29.73   0    
Oct 15 23:54 WSW 20 10 Light Rain BKN026 OVC032 69        %     29.69 29.69 0    
Oct 15 22:54   10 Cloudy BKN025 OVC033 69        %     29.71 29.7   0  
Oct 15 21:54   10 Cloudy SCT017 OVC029 68        %     29.74 29.73 0    
Oct 15 20:54   10 Light Rain FEW015 OVC020 67        %     29.76 29.75 0    
Oct 15 19:54 SSW 17 10 Cloudy FEW017 BKN023 OVC120 67        %     29.78 29.77 0   0
Oct 15 18:54 SSW 15 10 Light Rain SCT015 OVC023 67        %     29.8 29.8 0    
Oct 15 18:22   10 Cloudy BKN015 OVC020 66        %     29.83        
Oct 15 17:54 SSW 15 10 Cloudy OVC012 66        %     29.85 29.85      
Oct 15 16:54 SSW 15 10 Cloudy OVC012 65        %     29.88 29.88      
Oct 15 16:06 SSW 17 10 Cloudy OVC012 64        %     29.91        
Oct 15 15:54 SSW 17 10 Cloudy OVC015 64        %     29.92 29.91      
Oct 15 14:54 S 18 10 Cloudy FEW014 SCT022 OVC029 63        %     29.95 29.94      
Oct 15 14:21 S 16 10 Cloudy FEW027 OVC037 62        %     29.97        
Oct 15 13:54 S 13 10 Cloudy BKN028 OVC038 61        %     30 30 0   0
Oct 15 13:49 S 15 10 Cloudy BKN028 OVC038 61        %     30   0    
Oct 15 12:54 S 11 10 Cloudy OVC042 60        %     30.04 30.03 0    
Oct 15 11:54 S 11 10 Light Rain OVC034 57        %     30.08 30.08 0    
Oct 15 10:54 S 9 10 Cloudy BKN036 OVC060 54        %     30.13 30.13 0 0  
Oct 15 09:54 S 6 10 Light Rain BKN036 OVC050 53        %     30.16 30.15 0    
Oct 15 08:54 Calm 10 Cloudy BKN035 OVC060 51        %     30.17 30.17      
Oct 15 07:54 SSW 5 10 Mostly Cloudy BKN030 BKN250 50        %     30.19 30.18      
Oct 15 06:54 SSW 8 10 Partly Cloudy FEW030 SCT065 SCT250 48        % 44   30.2 30.19      
Oct 15 05:54 SSW 3 10 Mostly Clear FEW020 47        % 46   30.19 30.19      
Oct 15 04:54 SSW 5 10 Clear CLR 47        % 45   30.2 30.19      
Oct 15 03:54 SSW 6 10 Clear CLR 46        % 43   30.2 30.2      
Oct 15 02:54 SSW 7 10 Clear CLR 47        % 44   30.21 30.2      
Oct 15 01:54 SW 7 10 Mostly Clear FEW250 48        % 45   30.22 30.22      
Oct 15 00:54 WSW 8 10 Clear   51        %     30.22 30.22      
Oct 14 23:54 WSW 10 10 Clear CLR 52        %     30.22 30.21      
Oct 14 22:54 WSW 9 10 Clear CLR 52        %     30.22 30.21      
Oct 14 21:54 SW 13 10 Mostly Clear FEW250 52        %     30.21 30.21      
Oct 14 20:54 SW 8 10 Clear CLR 53        %     30.21 30.21      
Oct 14 19:54 SW 7 10 Clear CLR 54        %     30.2 30.19      
Oct 14 18:54 SW 8 10 Mostly Clear FEW180 55        %     30.2 30.2      
Oct 14 17:54 WSW 8 10 Partly Cloudy FEW150 FEW200 SCT220 57        %     30.19 30.18      
Oct 14 16:54 W 13 10 Mostly Cloudy SCT150 BKN200 BKN220 59        %     30.18 30.18      
Oct 14 15:54 WSW 13 10 Mostly Cloudy FEW040 SCT150 BKN200 BKN220 58        %     30.18 30.18      
Oct 14 14:54 SW 16 10 Cloudy FEW040 SCT150 BKN200 OVC220 57 38     49%     30.18 30.18      
Oct 14 13:54 WSW 9 10 Partly Cloudy FEW030 SCT160 SCT250 58 39     49%     30.18 30.18      
Oct 14 12:54 WSW 13 10 Partly Cloudy FEW030 SCT160 SCT250 56 36     47%     30.18 30.18      
Oct 14 11:54 W 10 10 Partly Cloudy FEW025 SCT160 SCT250 55 35     47%     30.18 30.18      
Oct 14 10:54 W 11 10 Mostly Cloudy FEW035 SCT200 BKN250 54 37     53%     30.19 30.19      
Oct 14 09:54 W 8 10 Mostly Cloudy FEW035 BKN250 50 39     66%     30.2 30.19      
Oct 14 08:54 W 8 10 Mostly Cloudy FEW035 BKN250 49 39     69% 45   30.19 30.19      
Oct 14 07:54 WNW 9 10 Mostly Cloudy FEW035 BKN250 47 38     71% 43   30.17 30.17      
Oct 14 06:54 W 8 10 Partly Cloudy FEW035 SCT250 47 38     71% 43   30.15 30.15      
Oct 14 05:54 WNW 10 10 Partly Cloudy SCT250 45 38     76% 40   30.14 30.13      
Oct 14 04:54 W 9 10 Mostly Clear FEW250 45 38     76% 40   30.12 30.11      
Oct 14 03:54 WNW 8 10 Clear CLR 45 38     76% 41   30.09 30.09      
Oct 14 02:54 W 11 10 Clear CLR 47 38     71% 42   30.08 30.08      
Oct 14 01:54 W 10 10 Clear CLR 48 39     71% 43   30.06 30.06      
Oct 14 00:54 W 9 10 Clear CLR 48 38     68% 44   30.04 30.04      
Oct 13 23:54 NW 7 10 Mostly Clear FEW050 47 40     76% 44   30.02 30.02      
Oct 13 22:54 WNW 9 10 Clear CLR 49 40     71% 45   30.01 30.01      
Oct 13 21:54 W 10 10 Mostly Clear FEW050 51 40     65%     30 30      
Oct 13 20:54 W 7 10 Mostly Clear FEW055 51 40     65%     29.96 29.96      
Oct 13 19:54 W 9 10 Mostly Clear FEW040 51 40     65%     29.93 29.93      
Oct 13 17:54 W 10 10 Mostly Clear FEW040 FEW090 53 40     61%     29.88 29.87      
May 15 07:22   6 Fog/Mist BKN006 BKN250 59 57     93%     29.85        
May 14 06:51 S 7 10 Cloudy FEW009 BKN030 OVC037 52 48     87%     30.03        
May 13 12:54 ENE 8 10 Clear   52 47     83%     30.21 30.21      
Notice The following observation data may not be complete
May 13 09:08   7 Cloudy BKN010 BKN014 OVC026          %              
May 13 06:54 ENE 8 1.5 Fog/Mist OVC004 48 47     96% 44   30.18 30.18      
Notice The following observation data may not be complete
May 12 19:54   3 Fog/Mist BKN006 OVC012          %         0   0
May 12 15:54 NNE 7 3 Light Rain and Fog/Mist BKN013 OVC045 49 46     90% 46   30.12 30.11 0    
Notice The following observation data may not be complete
May 11 19:54 E 8 10 Mostly Cloudy FEW035 SCT170 BKN310   43      %     30.06 30.05      
May 11 17:54 NW 10 10 Mostly Cloudy FEW035 BKN170 BKN310 70 22     16%     30 30      
Jun 12 05:54 WSW 6 10 Mostly Clear FEW150 FEW250 72 63     73%   72 29.96 29.95      
Jun 10 18:54 S 14 10 Clear   78 55     45%   78 29.91 29.91      
Jun 09 12:54 SE 8 10 Mostly Cloudy FEW050 BKN140 BKN250 70        %     29.63 29.63      
Jun 09 00:54 NE 6 10 Cloudy OVC130 56 53     90%     29.81 29.81      
Jun 08 19:54 SE 9 10 Cloudy BKN130 OVC250 61        %     29.91 29.91      
Jun 08 08:54 SSE 6 10 Partly Cloudy SCT250 61 54     78%     30.05 30.04      
Jun 06 14:26   3 Light Rain and Fog/Mist SCT008 BKN012 OVC023 48 48     100%     29.85   0    
Jun 06 13:33 NNE 18 1.25 Rain and Fog/Mist SCT005 BKN010 OVC016 48 47     96% 41   29.86   0